Lapse_Rate
5.3 5.6 5.4 5.1 5.1 6.1 6.3 5.9 6.2 6.5 6.1 6.5 7.0 7.6 8.1 8.7 8.9 8.8 8.6 8.7 8.8 8.7 7.9 7.8 7.6 7.8 7.6 7.3 7.2 7.1 7.1 7.1
5.8 5.5 5.8 5.5 6.0 5.8 6.0 6.2 6.2 6.2 5.6 6.5 7.2 7.4 7.9 8.6 8.7 8.9 8.8 8.7 8.9 8.8 8.6 8.4 8.3 8.3 8.1 7.8 7.5 7.5 7.1 7.2
5.6 5.0 5.3 4.9 5.0 5.4 5.8 6.0 6.7 6.4 6.4 6.3 6.9 7.6 7.8 8.5 8.8 9.1 9.0 9.1 9.1 9.1 9.1 9.2 9.0 8.4 8.4 8.3 8.0 7.8 7.6 7.6
5.5 5.5 5.8 5.8 5.9 5.9 6.4 5.5 5.6 6.3 6.4 6.7 6.9 7.2 7.9 8.3 8.7 8.9 8.9 9.1 9.2 9.2 9.3 9.3 9.2 9.1 8.8 8.8 8.4 8.2 8.3 8.3
5.7 5.7 5.7 5.5 5.8 5.6 5.8 6.0 5.2 5.8 5.8 6.5 6.4 6.9 7.0 7.5 8.2 8.6 9.1 9.2 9.2 9.2 9.1 9.3 9.3 9.2 9.0 8.8 8.5 8.4 8.4 8.4
6.4 6.1 5.9 5.3 5.4 5.4 5.5 5.6 5.3 5.0 5.7 5.8 6.6 6.8 7.2 7.5 7.7 8.0 8.4 8.5 8.6 9.0 9.0 9.2 9.2 9.3 8.9 8.9 8.8 8.5 8.5 8.4
4.5 4.8 4.4 4.5 5.2 5.0 4.8 5.3 5.4 5.4 5.3 5.3 5.8 6.6 7.1 7.6 7.9 7.9 8.3 8.5 8.7 8.8 8.8 8.9 9.1 9.2 9.3 9.1 9.0 8.6 8.3 8.3
4.0 4.3 3.9 4.0 4.6 4.8 4.6 4.7 4.5 4.7 4.8 5.0 5.3 5.8 6.3 6.7 7.0 7.5 7.9 8.1 8.3 8.4 8.5 8.7 9.1 9.2 9.4 9.2 8.8 8.9 8.7 8.4
4.3 4.1 4.1 4.0 4.6 4.4 4.8 4.8 5.0 4.8 5.0 5.4 5.9 5.9 6.3 6.5 6.5 7.0 7.5 7.9 8.0 8.3 8.2 8.3 8.8 9.1 9.3 9.4 9.1 9.0 8.9 9.1
4.2 3.9 4.6 4.8 5.2 5.3 5.3 5.6 5.7 5.5 5.5 5.7 6.0 6.4 6.4 6.7 6.9 6.8 7.0 7.6 7.7 7.9 8.1 8.3 8.7 8.9 9.3 9.3 9.2 8.9 9.0 9.2
4.4 4.6 4.4 4.6 4.6 4.8 5.2 5.4 5.5 5.7 6.0 6.1 6.1 6.1 6.6 6.9 7.1 7.3 7.3 7.5 7.6 7.5 7.4 8.0 8.4 8.6 9.1 9.1 9.1 8.9 8.9 9.0
4.1 4.2 4.7 4.9 5.5 4.7 4.9 4.5 5.5 6.0 6.4 6.4 6.5 6.4 6.5 7.4 7.6 7.6 7.5 7.3 7.5 7.7 7.8 8.1 8.2 8.2 8.6 8.9 9.1 8.9 8.9 9.0
3.8 3.8 4.1 4.4 5.3 4.6 4.9 5.5 5.8 6.0 6.6 6.7 6.7 6.8 7.3 7.5 7.6 7.8 8.2 7.8 8.0 7.9 7.8 7.9 8.1 8.1 8.3 8.5 8.8 9.1 9.2 9.1
3.5 3.4 3.1 3.9 5.2 4.5 5.2 5.6 5.6 6.1 6.5 6.9 7.3 7.3 7.3 7.6 7.7 7.8 8.0 8.1 8.0 8.1 8.1 7.9 8.0 8.3 8.3 8.4 8.7 8.8 8.9 9.0
4.4 3.7 3.5 4.0 4.8 5.4 5.4 5.8 5.8 6.1 6.6 7.0 7.6 7.9 7.8 7.8 7.8 7.8 8.1 8.2 8.2 8.2 8.3 8.2 8.2 8.2 8.2 8.2 8.3 8.4 8.8 9.0
4.2 3.8 3.3 4.1 4.3 4.1 4.8 5.4 5.7 6.1 6.7 7.2 7.5 8.2 8.4 8.2 7.9 7.7 8.0 8.2 8.3 8.5 8.4 8.4 8.2 8.3 8.4 8.4 8.5 8.9 8.9 9.2
4.3 4.2 4.6 4.6 4.6 3.9 4.3 5.1 6.2 6.4 6.3 6.8 7.5 8.1 8.0 8.0 7.9 8.1 8.0 8.1 8.3 8.3 8.5 8.5 8.4 8.4 8.5 8.6 8.8 8.9 9.1 9.3
4.6 4.6 4.2 4.6 4.3 4.0 4.1 4.4 5.8 6.3 6.4 6.9 7.6 7.1 7.2 7.5 7.4 7.4 7.5 7.7 7.6 7.7 8.0 8.0 8.2 8.2 8.4 8.5 8.7 8.8 8.9 9.0
5.6 5.0 4.5 4.7 4.4 4.3 4.6 4.8 5.3 5.4 6.4 6.9 6.8 7.0 7.2 7.2 7.6 7.6 7.5 7.5 7.7 7.7 7.7 7.7 7.7 7.8 8.0 8.1 8.2 8.4 8.7 8.6
Wind_Speed
20 12 23 15 24 23 7 2 5 14 16 10 8 18 17 19 17 17 21 23 27 26 23 23 23 24 24 23 22 21 22 19
21 20 24 15 18 11 12 14 12 9 9 13 18 19 19 19 18 18 19 20 22 23 24 23 25 23 23 23 23 23 22 20
17 19 21 10 19 10 11 9 8 8 10 7 14 18 20 21 20 20 19 19 20 21 22 23 20 20 22 22 23 22 22 21
17 11 21 24 18 21 11 10 12 9 7 3 13 12 15 18 16 13 14 16 16 18 20 20 22 21 23 22 22 23 22 21
9 11 8 20 23 21 19 9 16 12 5 10 5 1 4 9 12 10 10 13 13 13 17 19 20 21 22 23 25 24 21 21
14 9 3 6 8 23 23 17 18 21 17 6 4 6 10 11 12 10 10 10 10 12 15 17 19 20 20 22 22 22 22 22
2 4 4 7 10 11 16 22 22 20 26 20 18 18 18 12 9 10 11 11 11 13 13 15 16 18 19 20 19 21 21 22
5 9 10 12 12 13 15 17 16 21 23 14 7 14 19 21 18 15 15 13 13 12 12 15 17 17 18 19 20 20 21 23
5 5 10 14 21 16 15 14 15 21 17 13 15 17 16 19 19 17 16 15 14 13 12 13 17 17 19 19 16 19 20 18
5 3 9 4 3 6 11 14 19 22 19 17 15 17 18 19 18 19 20 18 16 15 12 13 14 16 15 16 17 17 17 17
5 11 16 16 5 1 4 12 6 8 17 21 20 21 18 17 19 21 19 16 13 12 12 10 14 13 15 16 17 17 19 21
4 9 11 3 7 2 4 13 5 7 12 10 14 15 14 15 17 17 14 12 11 9 9 11 11 14 15 17 17 19 20 20
14 9 7 10 3 2 8 1 9 9 13 14 10 12 12 5 6 5 6 9 9 6 4 2 7 12 14 14 18 16 14 15
12 11 19 11 11 9 5 7 12 14 13 17 16 17 16 9 5 6 6 7 7 7 4 2 3 10 11 11 9 11 13 14
9 9 13 14 14 14 9 12 13 15 15 16 17 13 11 8 7 8 9 9 8 9 10 8 7 7 10 7 6 9 12 13
10 15 20 19 18 15 11 12 15 13 13 14 12 10 7 6 7 8 7 8 9 9 11 11 10 9 8 5 3 5 9 11
12 17 19 20 17 14 12 12 10 6 8 5 5 4 6 7 6 4 7 6 7 8 10 10 8 8 7 5 2 2 2 4
10 6 10 16 13 15 12 11 5 3 4 6 7 6 6 7 5 4 5 6 7 8 9 8 7 7 6 5 4 2 1 2
15 11 17 19 18 20 14 8 4 4 2 10 6 5 4 6 7 6 7 8 8 9 8 8 7 7 6 5 4 4 2 3
Wind_Direction
199 182 186 185 211 214 255 143 243 224 246 263 228 215 216 224 218 214 213 212 213 212 208 206 205 204 203 203 205 202 206 206
190 186 198 192 177 178 211 226 234 218 241 240 195 208 211 221 222 223 222 216 216 212 211 206 207 205 201 203 205 204 204 205
186 200 177 181 190 202 204 222 226 247 241 202 218 210 207 213 217 220 221 219 217 212 211 212 210 208 206 202 202 202 204 204
201 182 218 203 195 196 199 195 233 269 244 255 222 212 218 222 229 224 229 221 223 217 211 211 209 207 206 205 203 204 202 202
221 218 201 219 215 207 219 214 208 213 186 235 191 202 212 260 252 231 223 228 225 219 215 212 212 210 208 204 208 204 200 201
221 225 42 206 193 211 221 227 229 230 242 199 251 254 268 266 263 258 243 220 207 216 216 214 214 210 209 208 207 203 200 201
324 313 311 270 257 240 233 237 236 243 241 241 252 279 287 285 273 283 272 251 221 217 217 222 218 212 208 209 200 199 199 201
288 286 282 274 259 254 246 247 255 259 261 270 297 257 259 257 269 268 264 255 250 233 229 222 216 212 207 205 203 195 197 205
256 320 307 268 245 241 244 240 240 246 250 250 251 243 249 252 248 246 253 260 258 245 226 227 217 205 204 204 195 197 203 205
268 303 243 278 345 264 261 244 234 248 242 239 239 249 239 237 240 244 245 247 247 246 241 227 229 219 210 193 194 197 200 200
232 229 281 295 240 96 306 258 295 285 266 250 239 250 259 250 243 245 251 256 248 243 243 224 214 212 196 194 192 193 200 201
198 236 235 221 261 260 197 263 154 323 294 291 257 240 246 247 233 241 244 241 240 226 219 217 218 204 192 196 192 201 203 207
227 247 253 266 283 99 216 285 325 313 300 295 262 247 296 303 206 242 274 241 211 208 215 174 190 194 196 192 203 207 202 200
221 241 243 275 293 242 0 312 310 307 301 293 284 282 263 250 197 173 164 163 166 154 136 96 170 178 175 182 194 193 192 198
225 221 256 299 299 312 324 309 308 299 304 292 284 267 226 192 161 144 138 120 117 123 105 79 83 136 133 140 164 182 195 198
261 257 263 270 286 283 297 288 295 296 298 285 266 232 194 159 150 138 122 112 116 108 92 83 73 79 93 100 99 192 205 209
272 274 277 273 271 279 279 284 291 310 303 261 157 141 139 116 94 86 92 86 84 93 92 82 78 75 64 47 18 172 217 224
245 256 306 290 302 308 282 273 278 309 239 65 79 97 99 82 48 46 77 91 85 74 78 80 79 84 61 31 21 11 290 263
254 263 281 275 294 285 266 241 200 241 206 104 76 95 77 66 78 80 71 80 79 79 77 75 68 52 23 13 354 13 48 65